User: anonymous   Login
Location: Vancouver
(49.2500°N, 123.1330°W)
Time: 21:49:17
(UTC-07:00)
Language:

ERS-2 - Orbit

View from above orbital plane
View from above orbital plane
View from above satellite
View from above satellite

Ground track
Ground track

The orbit data is extracted from the following two-line orbital elements,

1 23560U 95021A   17207.77651808 +.00000937 +00000-0 +46528-4 0  9990
2 23560 098.5571 205.4442 0004149 152.2346 207.9109 15.20768672181401
Epoch (UTC): 26 July 2017 18:38:11
Eccentricity: 0.0004149
inclination: 98.5571°
perigee height: 500 km
apogee height: 506 km
right ascension of ascending node: 205.4442°
argument of perigee: 152.2346°
revolutions per day: 15.20768672
mean anomaly at epoch: 207.9109°
orbit number at epoch: 18140

The dashed part of the orbit path shows where the satellite is in the earth's shadow,  

DLR